Year,Month,Day,Hour,Minute,Value (Times are PST for windgust in km/hr)
2019,08,05,00,09,1.60
2019,08,05,00,10,1.60
2019,08,05,00,11,1.60
2019,08,05,00,15,1.60
2019,08,05,00,16,1.60
2019,08,05,00,17,1.60
2019,08,05,00,18,1.60
2019,08,05,00,19,1.60
2019,08,05,00,20,1.60
2019,08,05,00,21,1.60
2019,08,05,00,22,1.60
2019,08,05,00,23,1.60
2019,08,05,00,24,1.60
2019,08,05,00,25,1.60
2019,08,05,00,29,1.60
2019,08,05,00,30,1.60
2019,08,05,00,46,1.60
2019,08,05,00,47,1.60
2019,08,05,00,48,3.20
2019,08,05,00,49,1.60
2019,08,05,00,50,1.60
2019,08,05,00,51,1.60
2019,08,05,00,52,1.60
2019,08,05,00,53,1.60
2019,08,05,00,54,1.60
2019,08,05,00,55,1.60
2019,08,05,00,56,1.60
2019,08,05,00,58,1.60
2019,08,05,01,01,1.60
2019,08,05,01,02,3.20
2019,08,05,01,03,3.20
2019,08,05,01,04,3.20
2019,08,05,01,05,1.60
2019,08,05,01,06,3.20
2019,08,05,01,07,3.20
2019,08,05,01,08,1.60
2019,08,05,01,09,3.20
2019,08,05,01,10,1.60
2019,08,05,01,11,1.60
2019,08,05,01,12,1.60
2019,08,05,01,13,1.60
2019,08,05,01,14,1.60
2019,08,05,01,16,1.60
2019,08,05,01,21,1.60
2019,08,05,01,22,1.60
2019,08,05,01,23,1.60
2019,08,05,01,24,1.60
2019,08,05,01,25,3.20
2019,08,05,01,26,1.60
2019,08,05,01,27,1.60
2019,08,05,01,28,1.60
2019,08,05,01,29,1.60
2019,08,05,01,38,1.60
2019,08,05,01,39,1.60
2019,08,05,01,40,1.60
2019,08,05,01,41,1.60
2019,08,05,01,42,1.60
2019,08,05,01,43,1.60
2019,08,05,01,45,1.60
2019,08,05,01,49,1.60
2019,08,05,01,50,1.60
2019,08,05,01,51,1.60
2019,08,05,01,52,1.60
2019,08,05,01,53,1.60
2019,08,05,02,06,1.60
2019,08,05,02,14,1.60
2019,08,05,02,20,1.60
2019,08,05,02,33,1.60
2019,08,05,02,35,1.60
2019,08,05,02,36,3.20
2019,08,05,02,37,1.60
2019,08,05,02,39,1.60
2019,08,05,02,52,1.60
2019,08,05,02,53,1.60
2019,08,05,02,55,1.60
2019,08,05,02,58,1.60
2019,08,05,02,59,1.60
2019,08,05,03,01,1.60
2019,08,05,03,05,1.60
2019,08,05,03,07,1.60
2019,08,05,03,08,1.60
2019,08,05,03,14,3.20
2019,08,05,03,15,3.20
2019,08,05,03,16,1.60
2019,08,05,03,17,1.60
2019,08,05,03,18,1.60
2019,08,05,03,20,3.20
2019,08,05,03,21,3.20
2019,08,05,03,22,4.80
2019,08,05,03,23,3.20
2019,08,05,03,24,1.60
2019,08,05,03,25,3.20
2019,08,05,03,26,1.60
2019,08,05,03,27,1.60
2019,08,05,03,28,3.20
2019,08,05,03,29,3.20
2019,08,05,03,30,1.60
2019,08,05,03,31,1.60
2019,08,05,03,32,1.60
2019,08,05,03,33,1.60
2019,08,05,03,34,1.60
2019,08,05,03,36,1.60
2019,08,05,03,37,3.20
2019,08,05,03,38,1.60
2019,08,05,03,39,1.60
2019,08,05,03,40,1.60
2019,08,05,03,41,1.60
2019,08,05,03,43,1.60
2019,08,05,03,44,4.80
2019,08,05,03,45,3.20
2019,08,05,03,46,1.60
2019,08,05,03,47,3.20
2019,08,05,03,48,4.80
2019,08,05,03,49,6.40
2019,08,05,03,50,4.80
2019,08,05,03,51,4.80
2019,08,05,03,52,3.20
2019,08,05,03,53,3.20
2019,08,05,03,54,3.20
2019,08,05,03,55,3.20
2019,08,05,03,56,3.20
2019,08,05,03,57,1.60
2019,08,05,03,58,1.60
2019,08,05,03,59,1.60
2019,08,05,04,00,3.20
2019,08,05,04,01,3.20
2019,08,05,04,02,3.20
2019,08,05,04,03,4.80
2019,08,05,04,04,4.80
2019,08,05,04,05,4.80
2019,08,05,04,06,3.20
2019,08,05,04,07,3.20
2019,08,05,04,08,1.60
2019,08,05,04,09,4.80
2019,08,05,04,10,3.20
2019,08,05,04,11,3.20
2019,08,05,04,12,3.20
2019,08,05,04,13,3.20
2019,08,05,04,14,3.20
2019,08,05,04,15,3.20
2019,08,05,04,16,3.20
2019,08,05,04,17,3.20
2019,08,05,04,18,6.40
2019,08,05,04,19,4.80
2019,08,05,04,20,4.80
2019,08,05,04,21,1.60
2019,08,05,04,22,4.80
2019,08,05,04,23,3.20
2019,08,05,04,24,4.80
2019,08,05,04,25,3.20
2019,08,05,04,26,3.20
2019,08,05,04,27,1.60
2019,08,05,04,28,3.20
2019,08,05,04,29,3.20
2019,08,05,04,30,3.20
2019,08,05,04,31,3.20
2019,08,05,04,32,1.60
2019,08,05,04,33,1.60
2019,08,05,04,34,3.20
2019,08,05,04,35,3.20
2019,08,05,04,36,1.60
2019,08,05,04,37,1.60
2019,08,05,04,38,3.20
2019,08,05,04,39,1.60
2019,08,05,04,40,3.20
2019,08,05,04,41,3.20
2019,08,05,04,42,3.20
2019,08,05,04,43,4.80
2019,08,05,04,44,4.80
2019,08,05,04,45,3.20
2019,08,05,04,46,3.20
2019,08,05,04,47,1.60
2019,08,05,04,48,4.80
2019,08,05,04,49,3.20
2019,08,05,04,50,3.20
2019,08,05,04,51,4.80
2019,08,05,04,52,3.20
2019,08,05,04,53,3.20
2019,08,05,04,54,1.60
2019,08,05,04,55,3.20
2019,08,05,04,56,1.60
2019,08,05,04,57,4.80
2019,08,05,04,58,3.20
2019,08,05,04,59,3.20
2019,08,05,05,00,1.60
2019,08,05,05,01,3.20
2019,08,05,05,02,4.80
2019,08,05,05,03,4.80
2019,08,05,05,04,1.60
2019,08,05,05,05,1.60
2019,08,05,05,06,4.80
2019,08,05,05,07,4.80
2019,08,05,05,08,1.60
2019,08,05,05,09,1.60
2019,08,05,05,10,3.20
2019,08,05,05,11,1.60
2019,08,05,05,12,3.20
2019,08,05,05,13,3.20
2019,08,05,05,14,3.20
2019,08,05,05,15,4.80
2019,08,05,05,16,4.80
2019,08,05,05,17,4.80
2019,08,05,05,18,3.20
2019,08,05,05,19,3.20
2019,08,05,05,20,1.60
2019,08,05,05,21,3.20
2019,08,05,05,22,3.20
2019,08,05,05,23,1.60
2019,08,05,05,24,3.20
2019,08,05,05,25,3.20
2019,08,05,05,26,3.20
2019,08,05,05,27,3.20
2019,08,05,05,28,3.20
2019,08,05,05,29,3.20
2019,08,05,05,30,4.80
2019,08,05,05,31,4.80
2019,08,05,05,32,3.20
2019,08,05,05,33,3.20
2019,08,05,05,34,3.20
2019,08,05,05,35,1.60
2019,08,05,05,36,3.20
2019,08,05,05,37,1.60
2019,08,05,05,38,1.60
2019,08,05,05,39,3.20
2019,08,05,05,40,4.80
2019,08,05,05,41,3.20
2019,08,05,05,42,3.20
2019,08,05,05,43,6.40
2019,08,05,05,44,6.40
2019,08,05,05,45,6.40
2019,08,05,05,46,9.60
2019,08,05,05,47,8.10
2019,08,05,05,48,8.10
2019,08,05,05,49,4.80
2019,08,05,05,50,4.80
2019,08,05,05,51,6.40
2019,08,05,05,52,4.80
2019,08,05,05,53,6.40
2019,08,05,05,54,4.80
2019,08,05,05,55,4.80
2019,08,05,05,56,3.20
2019,08,05,05,57,4.80
2019,08,05,05,58,8.10
2019,08,05,05,59,9.60
2019,08,05,06,00,6.40
2019,08,05,06,01,6.40
2019,08,05,06,02,4.80
2019,08,05,06,03,3.20
2019,08,05,06,04,3.20
2019,08,05,06,05,3.20
2019,08,05,06,06,4.80
2019,08,05,06,07,4.80
2019,08,05,06,08,4.80
2019,08,05,06,09,4.80
2019,08,05,06,10,6.40
2019,08,05,06,11,6.40
2019,08,05,06,12,6.40
2019,08,05,06,13,4.80
2019,08,05,06,14,4.80
2019,08,05,06,15,4.80
2019,08,05,06,16,6.40
2019,08,05,06,17,4.80
2019,08,05,06,18,4.80
2019,08,05,06,19,6.40
2019,08,05,06,20,4.80
2019,08,05,06,21,8.10
2019,08,05,06,22,9.60
2019,08,05,06,23,8.10
2019,08,05,06,24,4.80
2019,08,05,06,25,4.80
2019,08,05,06,26,1.60
2019,08,05,06,27,3.20
2019,08,05,06,28,3.20
2019,08,05,06,29,3.20
2019,08,05,06,30,6.40
2019,08,05,06,31,4.80
2019,08,05,06,32,3.20
2019,08,05,06,33,3.20
2019,08,05,06,34,3.20
2019,08,05,06,35,3.20
2019,08,05,06,36,3.20
2019,08,05,06,37,6.40
2019,08,05,06,38,4.80
2019,08,05,06,39,4.80
2019,08,05,06,40,1.60
2019,08,05,06,41,1.60
2019,08,05,06,42,3.20
2019,08,05,06,43,3.20
2019,08,05,06,44,1.60
2019,08,05,06,45,1.60
2019,08,05,06,46,1.60
2019,08,05,06,47,4.80
2019,08,05,06,48,4.80
2019,08,05,06,49,3.20
2019,08,05,06,50,3.20
2019,08,05,06,51,3.20
2019,08,05,06,54,1.60
2019,08,05,06,55,1.60
2019,08,05,07,02,1.60
2019,08,05,07,03,1.60
2019,08,05,07,04,3.20
2019,08,05,07,05,4.80
2019,08,05,07,06,1.60
2019,08,05,07,07,1.60
2019,08,05,07,08,1.60
2019,08,05,07,09,1.60
2019,08,05,07,10,1.60
2019,08,05,07,11,1.60
2019,08,05,07,14,3.20
2019,08,05,07,15,3.20
2019,08,05,07,16,1.60
2019,08,05,07,17,1.60
2019,08,05,07,18,3.20
2019,08,05,07,19,3.20
2019,08,05,07,20,4.80
2019,08,05,07,21,3.20
2019,08,05,07,22,1.60
2019,08,05,07,23,3.20
2019,08,05,07,24,6.40
2019,08,05,07,25,9.60
2019,08,05,07,26,6.40
2019,08,05,07,27,4.80
2019,08,05,07,28,3.20
2019,08,05,07,29,4.80
2019,08,05,07,30,6.40
2019,08,05,07,31,3.20
2019,08,05,07,32,9.60
2019,08,05,07,33,9.60
2019,08,05,07,34,9.60
2019,08,05,07,35,6.40
2019,08,05,07,36,4.80
2019,08,05,07,37,9.60
2019,08,05,07,38,4.80
2019,08,05,07,39,3.20
2019,08,05,07,40,4.80
2019,08,05,07,41,4.80
2019,08,05,07,42,4.80
2019,08,05,07,43,6.40
2019,08,05,07,44,9.60
2019,08,05,07,45,4.80
2019,08,05,07,46,4.80
2019,08,05,07,47,6.40
2019,08,05,07,48,4.80
2019,08,05,07,49,3.20
2019,08,05,07,50,6.40
2019,08,05,07,51,6.40
2019,08,05,07,52,6.40
2019,08,05,07,53,4.80
2019,08,05,07,54,3.20
2019,08,05,07,55,4.80
2019,08,05,07,56,6.40
2019,08,05,07,57,6.40
2019,08,05,07,58,3.20
2019,08,05,07,59,1.60
2019,08,05,08,00,1.60
2019,08,05,08,01,3.20
2019,08,05,08,02,3.20
2019,08,05,08,03,1.60
2019,08,05,08,04,4.80
2019,08,05,08,05,3.20
2019,08,05,08,06,1.60
2019,08,05,08,07,6.40
2019,08,05,08,08,6.40
2019,08,05,08,09,1.60
2019,08,05,08,10,3.20
2019,08,05,08,11,4.80
2019,08,05,08,12,6.40
2019,08,05,08,13,11.30
2019,08,05,08,14,1.60
2019,08,05,08,15,3.20
2019,08,05,08,16,3.20
2019,08,05,08,17,3.20
2019,08,05,08,18,6.40
2019,08,05,08,19,9.60
2019,08,05,08,20,3.20
2019,08,05,08,21,3.20
2019,08,05,08,22,3.20
2019,08,05,08,23,4.80
2019,08,05,08,24,3.20
2019,08,05,08,25,3.20
2019,08,05,08,26,3.20
2019,08,05,08,27,3.20
2019,08,05,08,28,3.20
2019,08,05,08,29,4.80
2019,08,05,08,30,4.80
2019,08,05,08,31,4.80
2019,08,05,08,32,3.20
2019,08,05,08,33,3.20
2019,08,05,08,34,6.40
2019,08,05,08,35,4.80
2019,08,05,08,36,3.20
2019,08,05,08,37,3.20
2019,08,05,08,38,3.20
2019,08,05,08,39,3.20
2019,08,05,08,40,3.20
2019,08,05,08,41,6.40
2019,08,05,08,42,6.40
2019,08,05,08,43,3.20
2019,08,05,08,44,4.80
2019,08,05,08,45,6.40
2019,08,05,08,46,6.40
2019,08,05,08,47,8.10
2019,08,05,08,48,6.40
2019,08,05,08,49,9.60
2019,08,05,08,50,9.60
2019,08,05,08,51,9.60
2019,08,05,08,52,6.40
2019,08,05,08,53,3.20
2019,08,05,08,54,8.10
2019,08,05,08,55,4.80
2019,08,05,08,56,12.90
2019,08,05,08,57,6.40
2019,08,05,08,58,4.80
2019,08,05,08,59,3.20
2019,08,05,09,00,6.40
2019,08,05,09,01,9.60
2019,08,05,09,02,12.90
2019,08,05,09,03,6.40
2019,08,05,09,04,4.80
2019,08,05,09,05,6.40
2019,08,05,09,06,4.80
2019,08,05,09,07,3.20
2019,08,05,09,08,12.90
2019,08,05,09,09,14.50
2019,08,05,09,10,8.10
2019,08,05,09,11,8.10
2019,08,05,09,12,6.40
2019,08,05,09,13,6.40
2019,08,05,09,14,6.40
2019,08,05,09,15,8.10
2019,08,05,09,16,6.40
2019,08,05,09,17,12.90
2019,08,05,09,18,11.30
2019,08,05,09,19,14.50
2019,08,05,09,20,17.70
2019,08,05,09,21,6.40
2019,08,05,09,22,6.40
2019,08,05,09,23,6.40
2019,08,05,09,24,11.30
2019,08,05,09,25,11.30
2019,08,05,09,26,8.10
2019,08,05,09,27,11.30
2019,08,05,09,28,8.10
2019,08,05,09,29,6.40
2019,08,05,09,30,8.10
2019,08,05,09,31,9.60
2019,08,05,09,32,6.40
2019,08,05,09,33,11.30
2019,08,05,09,34,8.10
2019,08,05,09,35,9.60
2019,08,05,09,36,9.60
2019,08,05,09,37,6.40
2019,08,05,09,38,4.80
2019,08,05,09,39,11.30
2019,08,05,09,40,14.50
2019,08,05,09,41,6.40
2019,08,05,09,42,6.40
2019,08,05,09,43,12.90
2019,08,05,09,44,16.10
2019,08,05,09,45,11.30
2019,08,05,09,46,12.90
2019,08,05,09,47,9.60
2019,08,05,09,48,12.90
2019,08,05,09,49,6.40
2019,08,05,09,50,4.80
2019,08,05,09,51,6.40
2019,08,05,09,52,8.10
2019,08,05,09,53,11.30
2019,08,05,09,54,4.80
2019,08,05,09,55,6.40
2019,08,05,09,56,4.80
2019,08,05,09,57,4.80
2019,08,05,09,58,8.10
2019,08,05,09,59,11.30
2019,08,05,10,00,6.40
2019,08,05,10,01,6.40
2019,08,05,10,02,9.60
2019,08,05,10,03,6.40
2019,08,05,10,04,6.40
2019,08,05,10,05,4.80
2019,08,05,10,06,8.10
2019,08,05,10,07,6.40
2019,08,05,10,08,12.90
2019,08,05,10,09,6.40
2019,08,05,10,10,6.40
2019,08,05,10,11,6.40
2019,08,05,10,12,14.50
2019,08,05,10,13,9.60
2019,08,05,10,14,8.10
2019,08,05,10,15,16.10
2019,08,05,10,16,11.30
2019,08,05,10,17,8.10
2019,08,05,10,18,9.60
2019,08,05,10,19,9.60
2019,08,05,10,20,8.10
2019,08,05,10,21,6.40
2019,08,05,10,22,4.80
2019,08,05,10,23,4.80
2019,08,05,10,24,14.50
2019,08,05,10,25,12.90
2019,08,05,10,26,16.10
2019,08,05,10,27,12.90
2019,08,05,10,28,9.60
2019,08,05,10,29,12.90
2019,08,05,10,30,9.60
2019,08,05,10,31,4.80
2019,08,05,10,32,6.40
2019,08,05,10,33,12.90
2019,08,05,10,34,14.50
2019,08,05,10,35,8.10
2019,08,05,10,36,12.90
2019,08,05,10,37,14.50
2019,08,05,10,38,11.30
2019,08,05,10,39,16.10
2019,08,05,10,40,19.30
2019,08,05,10,41,17.70
2019,08,05,10,42,16.10
2019,08,05,10,43,11.30
2019,08,05,10,44,4.80
2019,08,05,10,45,6.40
2019,08,05,10,46,6.40
2019,08,05,10,47,4.80
2019,08,05,10,48,4.80
2019,08,05,10,49,11.30
2019,08,05,10,50,9.60
2019,08,05,10,51,12.90
2019,08,05,10,52,12.90
2019,08,05,10,53,14.50
2019,08,05,10,54,14.50
2019,08,05,10,55,9.60
2019,08,05,10,56,12.90
2019,08,05,10,57,4.80
2019,08,05,10,58,6.40
2019,08,05,10,59,4.80
2019,08,05,11,00,4.80
2019,08,05,11,01,11.30
2019,08,05,11,02,11.30
2019,08,05,11,03,14.50
2019,08,05,11,04,6.40
2019,08,05,11,05,6.40
2019,08,05,11,06,6.40
2019,08,05,11,07,14.50
2019,08,05,11,08,16.10
2019,08,05,11,09,9.60
2019,08,05,11,10,24.20
2019,08,05,11,11,11.30
2019,08,05,11,12,6.40
2019,08,05,11,13,19.30
2019,08,05,11,14,11.30
2019,08,05,11,15,16.10
2019,08,05,11,16,9.60
2019,08,05,11,17,11.30
2019,08,05,11,18,12.90
2019,08,05,11,19,17.70
2019,08,05,11,20,6.40
2019,08,05,11,21,6.40
2019,08,05,11,22,6.40
2019,08,05,11,23,6.40
2019,08,05,11,24,16.10
2019,08,05,11,25,9.60
2019,08,05,11,26,12.90
2019,08,05,11,27,6.40
2019,08,05,11,28,6.40
2019,08,05,11,29,11.30
2019,08,05,11,30,6.40
2019,08,05,11,31,6.40
2019,08,05,11,32,9.60
2019,08,05,11,33,14.50
2019,08,05,11,34,6.40
2019,08,05,11,35,6.40
2019,08,05,11,36,6.40
2019,08,05,11,37,6.40
2019,08,05,11,38,12.90
2019,08,05,11,39,6.40
2019,08,05,11,40,16.10
2019,08,05,11,41,14.50
2019,08,05,11,42,4.80
2019,08,05,11,43,9.60
2019,08,05,11,44,8.10
2019,08,05,11,45,8.10
2019,08,05,11,46,6.40
2019,08,05,11,47,6.40
2019,08,05,11,48,6.40
2019,08,05,11,49,11.30
2019,08,05,11,50,11.30
2019,08,05,11,51,6.40
2019,08,05,11,52,6.40
2019,08,05,11,53,14.50
2019,08,05,11,54,11.30
2019,08,05,11,55,11.30
2019,08,05,11,56,8.10
2019,08,05,11,57,3.20
2019,08,05,11,58,11.30
2019,08,05,11,59,14.50
2019,08,05,12,00,11.30
2019,08,05,12,01,16.10
2019,08,05,12,02,17.70
2019,08,05,12,03,14.50
2019,08,05,12,04,16.10
2019,08,05,12,05,9.60
2019,08,05,12,06,9.60
2019,08,05,12,07,11.30
2019,08,05,12,08,9.60
2019,08,05,12,09,14.50
2019,08,05,12,10,9.60
2019,08,05,12,11,11.30
2019,08,05,12,12,11.30
2019,08,05,12,13,4.80
2019,08,05,12,14,8.10
2019,08,05,12,15,6.40
2019,08,05,12,16,14.50
2019,08,05,12,17,14.50
2019,08,05,12,18,12.90
2019,08,05,12,19,9.60
2019,08,05,12,20,17.70
2019,08,05,12,21,8.10
2019,08,05,12,22,6.40
2019,08,05,12,23,11.30
2019,08,05,12,24,11.30
2019,08,05,12,25,12.90
2019,08,05,12,26,6.40
2019,08,05,12,27,8.10
2019,08,05,12,28,11.30
2019,08,05,12,29,6.40
2019,08,05,12,30,14.50
2019,08,05,12,31,9.60
2019,08,05,12,32,6.40
2019,08,05,12,33,6.40
2019,08,05,12,34,6.40
2019,08,05,12,35,9.60
2019,08,05,12,36,3.20
2019,08,05,12,37,4.80
2019,08,05,12,38,11.30
2019,08,05,12,39,8.10
2019,08,05,12,40,8.10
2019,08,05,12,41,4.80
2019,08,05,12,42,4.80
2019,08,05,12,43,9.60
2019,08,05,12,44,16.10
2019,08,05,12,45,14.50
2019,08,05,12,46,11.30
2019,08,05,12,47,6.40
2019,08,05,12,48,6.40
2019,08,05,12,49,6.40
2019,08,05,12,50,4.80
2019,08,05,12,51,4.80
2019,08,05,12,52,8.10
2019,08,05,12,53,4.80
2019,08,05,12,54,8.10
2019,08,05,12,55,6.40
2019,08,05,12,56,6.40
2019,08,05,12,57,9.60
2019,08,05,12,58,9.60
2019,08,05,12,59,6.40
2019,08,05,13,00,14.50
2019,08,05,13,01,4.80
2019,08,05,13,02,6.40
2019,08,05,13,03,8.10
2019,08,05,13,04,4.80
2019,08,05,13,05,11.30
2019,08,05,13,06,9.60
2019,08,05,13,07,9.60
2019,08,05,13,08,6.40
2019,08,05,13,09,6.40
2019,08,05,13,10,6.40
2019,08,05,13,11,4.80
2019,08,05,13,12,4.80
2019,08,05,13,13,4.80
2019,08,05,13,14,8.10
2019,08,05,13,15,9.60
2019,08,05,13,16,9.60
2019,08,05,13,17,8.10
2019,08,05,13,18,6.40
2019,08,05,13,19,6.40
2019,08,05,13,20,4.80
2019,08,05,13,21,4.80
2019,08,05,13,22,6.40
2019,08,05,13,23,4.80
2019,08,05,13,24,11.30
2019,08,05,13,25,9.60
2019,08,05,13,26,6.40
2019,08,05,13,27,4.80
2019,08,05,13,28,9.60
2019,08,05,13,29,3.20
2019,08,05,13,30,4.80
2019,08,05,13,31,6.40
2019,08,05,13,32,6.40
2019,08,05,13,33,9.60
2019,08,05,13,34,4.80
2019,08,05,13,35,12.90
2019,08,05,13,36,12.90
2019,08,05,13,37,11.30
2019,08,05,13,38,4.80
2019,08,05,13,39,6.40
2019,08,05,13,40,6.40
2019,08,05,13,41,8.10
2019,08,05,13,42,9.60
2019,08,05,13,43,8.10
2019,08,05,13,44,6.40
2019,08,05,13,45,9.60
2019,08,05,13,46,8.10
2019,08,05,13,47,11.30
2019,08,05,13,48,11.30
2019,08,05,13,49,8.10
2019,08,05,13,50,6.40
2019,08,05,13,51,4.80
2019,08,05,13,52,8.10
2019,08,05,13,53,11.30
2019,08,05,13,54,6.40
2019,08,05,13,55,8.10
2019,08,05,13,56,4.80
2019,08,05,13,57,8.10
2019,08,05,13,58,6.40
2019,08,05,13,59,6.40
2019,08,05,14,00,11.30
2019,08,05,14,01,9.60
2019,08,05,14,02,4.80
2019,08,05,14,03,4.80
2019,08,05,14,04,11.30
2019,08,05,14,05,8.10
2019,08,05,14,06,4.80
2019,08,05,14,07,6.40
2019,08,05,14,08,6.40
2019,08,05,14,09,6.40
2019,08,05,14,10,9.60
2019,08,05,14,11,4.80
2019,08,05,14,12,4.80
2019,08,05,14,13,6.40
2019,08,05,14,14,11.30
2019,08,05,14,15,9.60
2019,08,05,14,16,6.40
2019,08,05,14,17,4.80
2019,08,05,14,18,6.40
2019,08,05,14,19,4.80
2019,08,05,14,20,6.40
2019,08,05,14,21,9.60
2019,08,05,14,22,6.40
2019,08,05,14,23,9.60
2019,08,05,14,24,4.80
2019,08,05,14,25,4.80
2019,08,05,14,26,6.40
2019,08,05,14,27,6.40
2019,08,05,14,28,6.40
2019,08,05,14,29,11.30
2019,08,05,14,30,4.80
2019,08,05,14,31,6.40
2019,08,05,14,32,8.10
2019,08,05,14,33,9.60
2019,08,05,14,34,9.60
2019,08,05,14,35,11.30
2019,08,05,14,36,11.30
2019,08,05,14,37,8.10
2019,08,05,14,38,9.60
2019,08,05,14,39,6.40
2019,08,05,14,40,3.20
2019,08,05,14,41,6.40
2019,08,05,14,42,11.30
2019,08,05,14,43,9.60
2019,08,05,14,44,6.40
2019,08,05,14,45,6.40
2019,08,05,14,46,4.80
2019,08,05,14,47,6.40
2019,08,05,14,48,6.40
2019,08,05,14,49,4.80
2019,08,05,14,50,11.30
2019,08,05,14,51,9.60
2019,08,05,14,52,12.90
2019,08,05,14,53,9.60
2019,08,05,14,54,12.90
2019,08,05,14,55,12.90
2019,08,05,14,56,11.30
2019,08,05,14,57,6.40
2019,08,05,14,58,9.60
2019,08,05,14,59,4.80
2019,08,05,15,00,4.80
2019,08,05,15,01,11.30
2019,08,05,15,02,8.10
2019,08,05,15,03,6.40
2019,08,05,15,04,8.10
2019,08,05,15,05,11.30
2019,08,05,15,06,12.90
2019,08,05,15,07,9.60
2019,08,05,15,08,9.60
2019,08,05,15,09,6.40
2019,08,05,15,10,6.40
2019,08,05,15,11,11.30
2019,08,05,15,12,4.80
2019,08,05,15,13,4.80
2019,08,05,15,14,6.40
2019,08,05,15,15,9.60
2019,08,05,15,16,6.40
2019,08,05,15,17,6.40
2019,08,05,15,18,4.80
2019,08,05,15,19,8.10
2019,08,05,15,20,4.80
2019,08,05,15,21,4.80
2019,08,05,15,22,4.80
2019,08,05,15,23,12.90
2019,08,05,15,24,11.30
2019,08,05,15,25,6.40
2019,08,05,15,26,4.80
2019,08,05,15,27,3.20
2019,08,05,15,28,6.40
2019,08,05,15,29,6.40
2019,08,05,15,30,4.80
2019,08,05,15,31,9.60
2019,08,05,15,32,3.20
2019,08,05,15,33,4.80
2019,08,05,15,34,4.80
2019,08,05,15,35,8.10
2019,08,05,15,36,8.10
2019,08,05,15,37,9.60
2019,08,05,15,38,6.40
2019,08,05,15,39,4.80
2019,08,05,15,40,4.80
2019,08,05,15,41,9.60
2019,08,05,15,42,6.40
2019,08,05,15,43,6.40
2019,08,05,15,44,9.60
2019,08,05,15,45,4.80
2019,08,05,15,46,4.80
2019,08,05,15,47,4.80
2019,08,05,15,48,6.40
2019,08,05,15,49,4.80
2019,08,05,15,50,4.80
2019,08,05,15,51,4.80
2019,08,05,15,52,4.80
2019,08,05,15,53,3.20
2019,08,05,15,54,4.80
2019,08,05,15,55,4.80
2019,08,05,15,56,4.80
2019,08,05,15,57,4.80
2019,08,05,15,58,4.80
2019,08,05,15,59,8.10
2019,08,05,16,00,8.10
2019,08,05,16,01,8.10
2019,08,05,16,02,8.10
2019,08,05,16,03,4.80
2019,08,05,16,04,6.40
2019,08,05,16,05,4.80
2019,08,05,16,06,4.80
2019,08,05,16,07,4.80
2019,08,05,16,08,4.80
2019,08,05,16,09,4.80
2019,08,05,16,10,3.20
2019,08,05,16,11,3.20
2019,08,05,16,12,4.80
2019,08,05,16,13,3.20
2019,08,05,16,14,4.80
2019,08,05,16,15,3.20
2019,08,05,16,16,4.80
2019,08,05,16,17,4.80
2019,08,05,16,18,4.80
2019,08,05,16,19,4.80
2019,08,05,16,20,4.80
2019,08,05,16,21,4.80
2019,08,05,16,22,4.80
2019,08,05,16,23,4.80
2019,08,05,16,24,4.80
2019,08,05,16,25,3.20
2019,08,05,16,26,4.80
2019,08,05,16,27,3.20
2019,08,05,16,28,4.80
2019,08,05,16,29,4.80
2019,08,05,16,30,4.80
2019,08,05,16,31,4.80
2019,08,05,16,32,4.80
2019,08,05,16,33,4.80
2019,08,05,16,34,4.80
2019,08,05,16,35,4.80
2019,08,05,16,36,4.80
2019,08,05,16,37,4.80
2019,08,05,16,38,4.80
2019,08,05,16,39,4.80
2019,08,05,16,40,4.80
2019,08,05,16,41,3.20
2019,08,05,16,42,4.80
2019,08,05,16,43,4.80
2019,08,05,16,44,4.80
2019,08,05,16,45,4.80
2019,08,05,16,46,4.80
2019,08,05,16,47,4.80
2019,08,05,16,48,6.40
2019,08,05,16,49,4.80
2019,08,05,16,50,6.40
2019,08,05,16,51,9.60
2019,08,05,16,52,4.80
2019,08,05,16,53,3.20
2019,08,05,16,54,4.80
2019,08,05,16,55,3.20
2019,08,05,16,56,4.80
2019,08,05,16,57,3.20
2019,08,05,16,58,4.80
2019,08,05,16,59,4.80
2019,08,05,17,00,6.40
2019,08,05,17,01,3.20
2019,08,05,17,02,4.80
2019,08,05,17,03,3.20
2019,08,05,17,04,3.20
2019,08,05,17,05,3.20
2019,08,05,17,06,4.80
2019,08,05,17,07,4.80
2019,08,05,17,08,4.80
2019,08,05,17,09,4.80
2019,08,05,17,10,4.80
2019,08,05,17,11,4.80
2019,08,05,17,12,4.80
2019,08,05,17,13,4.80
2019,08,05,17,14,3.20
2019,08,05,17,15,4.80
2019,08,05,17,16,3.20
2019,08,05,17,17,3.20
2019,08,05,17,18,4.80
2019,08,05,17,19,3.20
2019,08,05,17,20,3.20
2019,08,05,17,21,4.80
2019,08,05,17,22,4.80
2019,08,05,17,23,4.80
2019,08,05,17,24,6.40
2019,08,05,17,25,4.80
2019,08,05,17,26,4.80
2019,08,05,17,27,4.80
2019,08,05,17,28,3.20
2019,08,05,17,29,4.80
2019,08,05,17,30,4.80
2019,08,05,17,31,4.80
2019,08,05,17,32,4.80
2019,08,05,17,33,3.20
2019,08,05,17,34,3.20
2019,08,05,17,35,3.20
2019,08,05,17,36,3.20
2019,08,05,17,37,4.80
2019,08,05,17,38,3.20
2019,08,05,17,39,3.20
2019,08,05,17,40,3.20
2019,08,05,17,41,4.80
2019,08,05,17,42,4.80
2019,08,05,17,43,4.80
2019,08,05,17,44,4.80
2019,08,05,17,45,4.80
2019,08,05,17,46,4.80
2019,08,05,17,47,3.20
2019,08,05,17,48,4.80
2019,08,05,17,49,3.20
2019,08,05,17,50,4.80
2019,08,05,17,51,6.40
2019,08,05,17,52,4.80
2019,08,05,17,53,6.40
2019,08,05,17,54,4.80
2019,08,05,17,55,4.80
2019,08,05,17,56,4.80
2019,08,05,17,57,4.80
2019,08,05,17,58,4.80
2019,08,05,17,59,6.40
2019,08,05,18,00,4.80
2019,08,05,18,01,4.80
2019,08,05,18,02,4.80
2019,08,05,18,03,3.20
2019,08,05,18,04,6.40
2019,08,05,18,05,3.20
2019,08,05,18,06,6.40
2019,08,05,18,07,3.20
2019,08,05,18,08,3.20
2019,08,05,18,09,3.20
2019,08,05,18,10,3.20
2019,08,05,18,11,3.20
2019,08,05,18,12,3.20
2019,08,05,18,13,6.40
2019,08,05,18,14,6.40
2019,08,05,18,15,6.40
2019,08,05,18,16,6.40
2019,08,05,18,17,6.40
2019,08,05,18,18,3.20
2019,08,05,18,19,6.40
2019,08,05,18,20,6.40
2019,08,05,18,21,6.40
2019,08,05,18,22,6.40
2019,08,05,18,23,3.20
2019,08,05,18,24,6.40
2019,08,05,18,25,6.40
2019,08,05,18,26,6.40
2019,08,05,18,27,6.40
2019,08,05,18,28,6.40
2019,08,05,18,29,6.40
2019,08,05,18,30,6.40
2019,08,05,18,31,6.40
2019,08,05,18,32,3.20
2019,08,05,18,33,6.40
2019,08,05,18,34,6.40
2019,08,05,18,35,6.40
2019,08,05,18,36,3.20
2019,08,05,18,37,3.20
2019,08,05,18,38,6.40
2019,08,05,18,39,3.20
2019,08,05,18,40,3.20
2019,08,05,18,41,3.20
2019,08,05,18,42,6.40
2019,08,05,18,43,3.20
2019,08,05,18,44,6.40
2019,08,05,18,45,3.20
2019,08,05,18,46,3.20
2019,08,05,18,47,3.20
2019,08,05,18,48,6.40
2019,08,05,18,49,6.40
2019,08,05,18,50,6.40
2019,08,05,18,51,3.20
2019,08,05,18,52,3.20
2019,08,05,18,53,3.20
2019,08,05,18,54,6.40
2019,08,05,18,55,3.20
2019,08,05,18,56,3.20
2019,08,05,18,57,3.20
2019,08,05,18,58,3.20
2019,08,05,18,59,3.20
2019,08,05,19,00,3.20
2019,08,05,19,01,3.20
2019,08,05,19,02,3.20
2019,08,05,19,03,3.20
2019,08,05,19,04,3.20
2019,08,05,19,05,3.20
2019,08,05,19,06,3.20
2019,08,05,19,07,3.20
2019,08,05,19,08,3.20
2019,08,05,19,09,3.20
2019,08,05,19,10,3.20
2019,08,05,19,11,3.20
2019,08,05,19,12,3.20
2019,08,05,19,13,3.20
2019,08,05,19,14,3.20
2019,08,05,19,15,3.20
2019,08,05,19,16,3.20
2019,08,05,19,17,3.20
2019,08,05,19,18,3.20
2019,08,05,19,19,3.20
2019,08,05,19,20,3.20
2019,08,05,19,21,3.20
2019,08,05,19,22,3.20
2019,08,05,19,23,1.60
2019,08,05,19,24,1.60
2019,08,05,19,25,1.60
2019,08,05,19,26,1.60
2019,08,05,19,27,1.60
2019,08,05,19,28,1.60
2019,08,05,19,29,1.60
2019,08,05,19,30,1.60
2019,08,05,19,31,1.60
2019,08,05,19,32,1.60
2019,08,05,19,33,1.60
2019,08,05,19,34,1.60
2019,08,05,19,35,1.60
2019,08,05,19,36,3.20
2019,08,05,19,37,3.20
2019,08,05,19,38,3.20
2019,08,05,19,39,3.20
2019,08,05,19,40,3.20
2019,08,05,19,41,3.20
2019,08,05,19,42,3.20
2019,08,05,19,43,3.20
2019,08,05,19,44,3.20
2019,08,05,19,45,3.20
2019,08,05,19,46,3.20
2019,08,05,19,47,3.20
2019,08,05,19,48,3.20
2019,08,05,19,49,1.60
2019,08,05,19,50,3.20
2019,08,05,19,51,3.20
2019,08,05,19,52,1.60
2019,08,05,19,53,1.60
2019,08,05,19,54,1.60
2019,08,05,19,55,1.60
2019,08,05,19,56,1.60
2019,08,05,19,57,1.60
2019,08,05,20,08,1.60
2019,08,05,20,09,1.60
2019,08,05,20,10,1.60
2019,08,05,20,12,1.60
2019,08,05,20,52,1.60
2019,08,05,20,53,1.60
2019,08,05,20,54,1.60
2019,08,05,20,55,1.60
2019,08,05,21,10,1.60
2019,08,05,21,11,1.60